Satellite: CO-55
Catalog number: 27844
Epoch time:      09315.54271396
Element set:     709
Inclination:      098.7126 deg
RA of node:       322.6361 deg
Eccentricity:    0.0010631
Arg of perigee:   078.7951 deg
Mean anomaly:     281.4420 deg
Mean motion:   14.20665865 rev/day
Decay rate:        4.4e-07 rev/day^2
Epoch rev:           33018
Checksum:              308

Satellite: CO-57
Catalog number: 27848
Epoch time:      09316.73842120
Element set:     661
Inclination:      098.7176 deg
RA of node:       322.8826 deg
Eccentricity:    0.0010781
Arg of perigee:   080.2740 deg
Mean anomaly:     279.9650 deg
Mean motion:   14.20464232 rev/day
Decay rate:        1.7e-07 rev/day^2
Epoch rev:           33031
Checksum:              302

Satellite: AO-51
Catalog number: 28375
Epoch time:      09316.45655738
Element set:     531
Inclination:      098.0536 deg
RA of node:       317.4399 deg
Eccentricity:    0.0085120
Arg of perigee:   035.2623 deg
Mean anomaly:     325.4158 deg
Mean motion:   14.40658535 rev/day
Decay rate:        2.3e-07 rev/day^2
Epoch rev:           28230
Checksum:              306

Satellite: CO-56
Catalog number: 28941
Epoch time:      09297.68475575
Element set:     556
Inclination:      098.0955 deg
RA of node:       138.9518 deg
Eccentricity:    0.0011688
Arg of perigee:   319.8691 deg
Mean anomaly:     040.7485 deg
Mean motion:   16.46998778 rev/day
Decay rate:  1.4491492e-01 rev/day^2
Epoch rev:           20790
Checksum:              407

Satellite: GENESAT1
Catalog number: 29655
Epoch time:      09316.45524496
Element set:     859
Inclination:      040.0221 deg
RA of node:       332.0438 deg
Eccentricity:    0.0003439
Arg of perigee:   192.0299 deg
Mean anomaly:     168.0437 deg
Mean motion:   15.69485926 rev/day
Decay rate:     2.0267e-04 rev/day^2
Epoch rev:           16574
Checksum:              322

Satellite: CP3
Catalog number: 31129
Epoch time:      09316.10881075
Element set:     323
Inclination:      097.9708 deg
RA of node:       001.9617 deg
Eccentricity:    0.0102233
Arg of perigee:   186.4593 deg
Mean anomaly:     173.5298 deg
Mean motion:   14.52179300 rev/day
Decay rate:       1.40e-06 rev/day^2
Epoch rev:           13635
Checksum:              286

Satellite: CO-65
Catalog number: 32785
Epoch time:      09315.83431125
Element set:     522
Inclination:      097.9287 deg
RA of node:       018.4419 deg
Eccentricity:    0.0013937
Arg of perigee:   272.5761 deg
Mean anomaly:     087.3841 deg
Mean motion:   14.81540461 rev/day
Decay rate:       2.46e-06 rev/day^2
Epoch rev:            8330
Checksum:              313

Satellite: KKS-1
Catalog number: 33493
Epoch time:      09316.83310052
Element set:     935
Inclination:      098.0688 deg
RA of node:       069.8031 deg
Eccentricity:    0.0021151
Arg of perigee:   119.5092 deg
Mean anomaly:     240.8233 deg
Mean motion:   14.80771556 rev/day
Decay rate:       3.63e-06 rev/day^2
Epoch rev:            4346
Checksum:              289

Satellite: SOHLA-1
Catalog number: 33496
Epoch time:      09316.83122261
Element set:     899
Inclination:      098.0480 deg
RA of node:       063.9069 deg
Eccentricity:    0.0006731
Arg of perigee:   160.6824 deg
Mean anomaly:     199.4633 deg
Mean motion:   14.69454881 rev/day
Decay rate:        7.2e-07 rev/day^2
Epoch rev:            4310
Checksum:              315

/EX
SB KEPS @ AMSAT  $ORB09316.W
Orbital Elements  09316.WEATHER

HR AMSAT ORBITAL ELEMENTS FOR WEATHER SATELLITES
FROM WA5QGD FORT WORTH,TX November 12, 2009
Send Subscribe/unsubscribe to KEPS at http://www.amsat.org/mailman/listinfo/kep
BID: ORB09316.W
TO ALL RADIO AMATEURS BT

Satellite: NOAA-10
Catalog number: 16969
Epoch time:      09316.62384335
Element set:     833
Inclination:      098.6807 deg
RA of node:       342.3815 deg
Eccentricity:    0.0012870
Arg of perigee:   121.7074 deg
Mean anomaly:     238.5359 deg
Mean motion:   14.27398298 rev/day
Decay rate:       -5.1e-07 rev/day^2
Epoch rev:           20468
Checksum:              329

Satellite: NOAA-11
Catalog number: 19531
Epoch time:      09316.78138903
Element set:     848
Inclination:      098.7802 deg
RA of node:       044.4096 deg
Eccentricity:    0.0012195
Arg of perigee:   046.9875 deg
Mean anomaly:     313.2299 deg
Mean motion:   14.14907353 rev/day
Decay rate:        2.3e-07 rev/day^2
Epoch rev:            9053
Checksum:              316

Satellite: NOAA-12
Catalog number: 21263
Epoch time:      09316.76134636
Element set:     333
Inclination:      098.7712 deg
RA of node:       324.9026 deg
Eccentricity:    0.0013353
Arg of perigee:   076.1794 deg
Mean anomaly:     284.0866 deg
Mean motion:   14.25601042 rev/day
Decay rate:        2.9e-07 rev/day^2
Epoch rev:           96156
Checksum:              298

Satellite: MET-3/5
Catalog number: 21655
Epoch time:      09316.89664801
Element set:     680
Inclination:      082.5530 deg
RA of node:       101.4524 deg
Eccentricity:    0.0013568
Arg of perigee:   165.3382 deg
Mean anomaly:     194.8137 deg
Mean motion:   13.17021533 rev/day
Decay rate:        5.1e-07 rev/day^2
Epoch rev:           87720
Checksum:              293

